Location: Terre Du Lac
(37.9120°N, 90.6250°W)
Time: 07:54:54
(UTC-06:00)

Hubble Space Telescope - Visible Passes

Search period start: 28 February 2015 00:00
Search period end: 10 March 2015 01:00
Orbit: 543 x 548 km, 28.5° (Epoch: 26 February)

Date Brightness Start Highest point End Pass type
(mag) Time Alt. Az. Time Alt. Az. Time Alt. Az.
28 Feb 2.6 04:43:10 20° S 04:43:10 20° S 04:46:15 10° SE visible
01 Mar 2.6 04:35:26 21° SSE 04:35:26 21° SSE 04:38:04 10° SE visible
02 Mar 2.8 04:27:43 20° SSE 04:27:43 20° SSE 04:29:50 10° SE visible
02 Mar 2.8 06:04:35 10° SW 06:07:21 17° SSW 06:10:06 10° SSE visible
03 Mar 3.0 04:19:59 17° SSE 04:19:59 17° SSE 04:21:33 10° SE visible
03 Mar 2.9 05:56:37 10° SW 05:59:04 15° SSW 06:01:28 10° SSE visible
04 Mar 3.3 04:12:17 14° SE 04:12:17 14° SE 04:13:13 10° SE visible
04 Mar 3.0 05:48:49 10° SW 05:50:45 13° SSW 05:52:38 10° S visible
05 Mar 3.6 04:04:37 11° SE 04:04:37 11° SE 04:04:49 10° SE visible
05 Mar 3.1 05:41:29 10° SSW 05:42:26 11° SSW 05:43:17 10° S visible
